owner,sensor,date,latitude,longitude,vertical_datum,direction_of_sea_water_velocity,sea_water_speed,upward_sea_water_velocity,qcFlag 
TABS,ioos:station:wmo:42048:1,2006-12-01T00:00:00Z,27.9396,-96.8429,2.0,227.962342,16.14361174,-99999.0,'11111222,11111222,99999999' 
TABS,ioos:station:wmo:42048:1,2006-12-01T00:30:00Z,27.9396,-96.8429,2.0,232.6772329,12.91440281,-99999.0,'11111222,11111222,99999999' 
TABS,ioos:station:wmo:42048:1,2006-12-01T01:00:00Z,27.9396,-96.8429,2.0,237.2879787,10.23293702,-99999.0,'11111222,11111222,99999999' 
TABS,ioos:station:wmo:42048:1,2006-12-01T01:30:00Z,27.9396,-96.8429,2.0,250.9379896,15.0343673,-99999.0,'11111222,11111222,99999999' 
TABS,ioos:station:wmo:42048:1,2006-12-01T02:00:00Z,27.9396,-96.8429,2.0,254.8090053,13.24270743,-99999.0,'11111222,11111222,99999999' 
TABS,ioos:station:wmo:42048:1,2006-12-01T02:30:00Z,27.9396,-96.8429,2.0,289.6295041,10.92487986,-99999.0,'11111222,11111222,99999999' 
TABS,ioos:station:wmo:42048:1,2006-12-01T03:00:00Z,27.9396,-96.8429,2.0,345.0919873,4.780930872,-99999.0,'11133222,11111222,99999999' 
TABS,ioos:station:wmo:42048:1,2006-12-01T03:30:00Z,27.9396,-96.8429,2.0,262.4696699,7.02054129,-99999.0,'11133222,11111222,99999999' 
TABS,ioos:station:wmo:42048:1,2006-12-01T04:00:00Z,27.9396,-96.8429,2.0,243.5707648,7.52662607,-99999.0,'11133222,11111222,99999999' 
TABS,ioos:station:wmo:42048:1,2006-12-01T04:30:00Z,27.9396,-96.8429,2.0,269.8337456,6.910028943,-99999.0,'11133222,11111222,99999999' 
TABS,ioos:station:wmo:42048:1,2006-12-01T05:00:00Z,27.9396,-96.8429,2.0,259.0657879,0.896270049,-99999.0,'11133222,11111222,99999999' 
TABS,ioos:station:wmo:42048:1,2006-12-01T05:30:00Z,27.9396,-96.8429,2.0,357.2545655,5.636470527,-99999.0,'11133222,11111222,99999999' 
TABS,ioos:station:wmo:42048:1,2006-12-01T06:00:00Z,27.9396,-96.8429,2.0,316.013865,8.394670929,-99999.0,'11133222,11111222,99999999' 
TABS,ioos:station:wmo:42048:1,2006-12-02T07:00:00Z,27.9396,-96.8429,2.0,43.13688314,21.74796082,-99999.0,'11111222,11111222,99999999' 
TABS,ioos:station:wmo:42048:1,2006-12-02T07:30:00Z,27.9396,-96.8429,2.0,48.06877128,19.81325819,-99999.0,'11111222,11111222,99999999' 
TABS,ioos:station:wmo:42048:1,2006-12-02T08:00:00Z,27.9396,-96.8429,2.0,51.09364241,20.31683292,-99999.0,'11111222,11111222,99999999' 
TABS,ioos:station:wmo:42048:1,2006-12-02T08:30:00Z,27.9396,-96.8429,2.0,47.24004766,19.17724693,-99999.0,'11111222,11111222,99999999' 
TABS,ioos:station:wmo:42048:1,2006-12-02T09:00:00Z,27.9396,-96.8429,2.0,46.00003037,13.77653803,-99999.0,'11111222,11111222,99999999' 
TABS,ioos:station:wmo:42048:1,2006-12-02T09:30:00Z,27.9396,-96.8429,2.0,52.60966547,12.54851784,-99999.0,'11111222,11111222,99999999' 
TABS,ioos:station:wmo:42048:1,2006-12-02T10:00:00Z,27.9396,-96.8429,2.0,52.81697395,9.8781476,-99999.0,'11133222,11111222,99999999' 
TABS,ioos:station:wmo:42048:1,2006-12-02T10:30:00Z,27.9396,-96.8429,2.0,32.65025531,6.876641622,-99999.0,'11133222,11111222,99999999' 
TABS,ioos:station:wmo:42048:1,2006-12-02T11:00:00Z,27.9396,-96.8429,2.0,63.87301062,12.28531644,-99999.0,'11111222,11111222,99999999' 
TABS,ioos:station:wmo:42048:1,2006-12-02T11:30:00Z,27.9396,-96.8429,2.0,60.33381901,13.55700926,-99999.0,'11111222,11111222,99999999' 
TABS,ioos:station:wmo:42048:1,2006-12-02T12:00:00Z,27.9396,-96.8429,2.0,40.00878364,9.752630414,-99999.0,'11133222,11111222,99999999' 
TABS,ioos:station:wmo:42048:1,2006-12-02T12:30:00Z,27.9396,-96.8429,2.0,26.05364484,4.508092723,-99999.0,'11133222,11111222,99999999' 
TABS,ioos:station:wmo:42048:1,2006-12-02T13:00:00Z,27.9396,-96.8429,2.0,61.38282669,6.743834221,-99999.0,'11133222,11111222,99999999' 
TABS,ioos:station:wmo:42048:1,2006-12-02T13:30:00Z,27.9396,-96.8429,2.0,51.02239182,4.785237716,-99999.0,'11133222,11111222,99999999' 
TABS,ioos:station:wmo:42048:1,2006-12-02T14:00:00Z,27.9396,-96.8429,2.0,18.15132058,5.745928994,-99999.0,'11133222,11111222,99999999' 
TABS,ioos:station:wmo:42048:1,2006-12-02T14:30:00Z,27.9396,-96.8429,2.0,334.698891,3.650150682,-99999.0,'11133222,11111222,99999999' 
TABS,ioos:station:wmo:42048:1,2006-12-02T15:00:00Z,27.9396,-96.8429,2.0,322.8960623,0.97800818,-99999.0,'11133222,11111222,99999999' 
TABS,ioos:station:wmo:42048:1,2006-12-02T15:30:00Z,27.9396,-96.8429,2.0,265.8578134,2.907593507,-99999.0,'11133222,11111222,99999999' 
TABS,ioos:station:wmo:42048:1,2006-12-02T16:00:00Z,27.9396,-96.8429,2.0,303.1287056,3.677839039,-99999.0,'11133222,11111222,99999999' 
TABS,ioos:station:wmo:42048:1,2006-12-02T16:30:00Z,27.9396,-96.8429,2.0,252.7307402,4.817146458,-99999.0,'11133222,11111222,99999999' 
TABS,ioos:station:wmo:42048:1,2006-12-02T17:00:00Z,27.9396,-96.8429,2.0,241.7416155,5.449440338,-99999.0,'11133222,11111222,99999999' 
TABS,ioos:station:wmo:42048:1,2006-12-02T17:30:00Z,27.9396,-96.8429,2.0,229.665117,5.824645912,-99999.0,'11133222,11111222,99999999' 
TABS,ioos:station:wmo:42048:1,2006-12-02T18:00:00Z,27.9396,-96.8429,2.0,212.7306105,7.952741666,-99999.0,'11133222,11111222,99999999' 
TABS,ioos:station:wmo:42048:1,2006-12-02T18:30:00Z,27.9396,-96.8429,2.0,215.5574528,13.27548116,-99999.0,'11111222,11111222,99999999' 
TABS,ioos:station:wmo:42048:1,2006-12-02T19:00:00Z,27.9396,-96.8429,2.0,221.5107303,13.59457612,-99999.0,'11111222,11111222,99999999' 
TABS,ioos:station:wmo:42048:1,2006-12-02T19:30:00Z,27.9396,-96.8429,2.0,221.0381667,15.35261541,-99999.0,'11111222,11111222,99999999' 
TABS,ioos:station:wmo:42048:1,2006-12-02T20:00:00Z,27.9396,-96.8429,2.0,227.149566,19.79170786,-99999.0,'11111222,11111222,99999999' 
TABS,ioos:station:wmo:42048:1,2006-12-02T20:30:00Z,27.9396,-96.8429,2.0,221.6999229,18.5498814,-99999.0,'11111222,11111222,99999999' 
TABS,ioos:station:wmo:42048:1,2006-12-02T21:00:00Z,27.9396,-96.8429,2.0,219.7904337,19.78169861,-99999.0,'11111222,11111222,99999999' 
TABS,ioos:station:wmo:42048:1,2006-12-02T21:30:00Z,27.9396,-96.8429,2.0,221.6548037,22.05688101,-99999.0,'11111222,11111222,99999999' 
TABS,ioos:station:wmo:42048:1,2006-12-02T22:00:00Z,27.9396,-96.8429,2.0,234.1476842,21.61541117,-99999.0,'11111222,11111222,99999999' 
TABS,ioos:station:wmo:42048:1,2006-12-02T22:30:00Z,27.9396,-96.8429,2.0,222.1427014,22.41486114,-99999.0,'11111222,11111222,99999999' 
TABS,ioos:station:wmo:42048:1,2006-12-02T23:00:00Z,27.9396,-96.8429,2.0,228.8850672,24.94041098,-99999.0,'11111222,11111222,99999999' 
TABS,ioos:station:wmo:42048:1,2006-12-02T23:30:00Z,27.9396,-96.8429,2.0,225.2483888,26.0642015,-99999.0,'11111222,11111222,99999999' 
TABS,ioos:station:wmo:42048:1,2006-12-03T00:00:00Z,27.9396,-96.8429,2.0,216.8873629,25.80600124,-99999.0,'11111222,11111222,99999999' 
TABS,ioos:station:wmo:42048:1,2006-12-03T00:30:00Z,27.9396,-96.8429,2.0,232.1119318,23.64373067,-99999.0,'11111222,11111222,99999999' 
TABS,ioos:station:wmo:42048:1,2006-12-03T01:00:00Z,27.9396,-96.8429,2.0,226.9357443,26.58117567,-99999.0,'11111222,11111222,99999999' 
TABS,ioos:station:wmo:42048:1,2006-12-03T01:30:00Z,27.9396,-96.8429,2.0,225.8426657,25.95362788,-99999.0,'11111222,11111222,99999999' 
TABS,ioos:station:wmo:42048:1,2006-12-03T02:00:00Z,27.9396,-96.8429,2.0,224.1503702,27.19124308,-99999.0,'11111222,11111222,99999999' 
TABS,ioos:station:wmo:42048:1,2006-12-03T02:30:00Z,27.9396,-96.8429,2.0,225.8675031,26.61148061,-99999.0,'11111222,11111222,99999999' 
TABS,ioos:station:wmo:42048:1,2006-12-03T03:00:00Z,27.9396,-96.8429,2.0,216.8956602,26.38400273,-99999.0,'11111222,11111222,99999999' 
TABS,ioos:station:wmo:42048:1,2006-12-03T03:30:00Z,27.9396,-96.8429,2.0,216.9811294,26.71405061,-99999.0,'11111222,11111222,99999999' 
TABS,ioos:station:wmo:42048:1,2006-12-03T04:00:00Z,27.9396,-96.8429,2.0,218.2053236,26.5972273,-99999.0,'11111222,11111222,99999999' 
TABS,ioos:station:wmo:42048:1,2006-12-03T04:30:00Z,27.9396,-96.8429,2.0,220.1362653,31.69349776,-99999.0,'11111222,11111222,99999999' 
TABS,ioos:station:wmo:42048:1,2006-12-03T05:00:00Z,27.9396,-96.8429,2.0,209.563658,29.06396394,-99999.0,'11111222,11111222,99999999' 
TABS,ioos:station:wmo:42048:1,2006-12-03T05:30:00Z,27.9396,-96.8429,2.0,214.7394463,30.8853428,-99999.0,'11111222,11111222,99999999' 
TABS,ioos:station:wmo:42048:1,2006-12-03T06:00:00Z,27.9396,-96.8429,2.0,216.8531686,27.89400115,-99999.0,'11111222,11111222,99999999' 
TABS,ioos:station:wmo:42048:1,2006-12-03T06:30:00Z,27.9396,-96.8429,2.0,208.5380497,26.62499765,-99999.0,'11111222,11111222,99999999' 
TABS,ioos:station:wmo:42048:1,2006-12-03T07:00:00Z,27.9396,-96.8429,2.0,219.5135407,30.17612301,-99999.0,'11111222,11111222,99999999' 
TABS,ioos:station:wmo:42048:1,2006-12-03T07:30:00Z,27.9396,-96.8429,2.0,215.197484,30.56901699,-99999.0,'11111222,11111222,99999999' 
TABS,ioos:station:wmo:42048:1,2006-12-03T08:00:00Z,27.9396,-96.8429,2.0,221.4734645,31.27089701,-99999.0,'11111222,11111222,99999999' 
TABS,ioos:station:wmo:42048:1,2006-12-03T08:30:00Z,27.9396,-96.8429,2.0,216.1285624,31.54663849,-99999.0,'11111222,11111222,99999999' 
TABS,ioos:station:wmo:42048:1,2006-12-03T09:00:00Z,27.9396,-96.8429,2.0,214.4956808,30.56423073,-99999.0,'11111222,11111222,99999999' 
TABS,ioos:station:wmo:42048:1,2006-12-03T09:30:00Z,27.9396,-96.8429,2.0,218.5093536,33.96790986,-99999.0,'11111222,11111222,99999999' 
TABS,ioos:station:wmo:42048:1,2006-12-03T10:00:00Z,27.9396,-96.8429,2.0,215.6509399,34.60582754,-99999.0,'11111222,11111222,99999999' 
TABS,ioos:station:wmo:42048:1,2006-12-03T10:30:00Z,27.9396,-96.8429,2.0,215.7841627,35.89644133,-99999.0,'11111222,11111222,99999999' 
TABS,ioos:station:wmo:42048:1,2006-12-03T11:00:00Z,27.9396,-96.8429,2.0,217.4810435,26.42550473,-99999.0,'11111222,11111222,99999999' 
TABS,ioos:station:wmo:42048:1,2006-12-03T11:30:00Z,27.9396,-96.8429,2.0,227.3686604,31.81871462,-99999.0,'11111222,11111222,99999999' 
TABS,ioos:station:wmo:42048:1,2006-12-03T12:00:00Z,27.9396,-96.8429,2.0,214.8518897,36.92289263,-99999.0,'11111222,11111222,99999999' 
TABS,ioos:station:wmo:42048:1,2006-12-03T12:30:00Z,27.9396,-96.8429,2.0,218.9622325,35.76585243,-99999.0,'11111222,11111222,99999999' 
TABS,ioos:station:wmo:42048:1,2006-12-03T13:00:00Z,27.9396,-96.8429,2.0,229.219185,31.90628778,-99999.0,'11111222,11111222,99999999' 
TABS,ioos:station:wmo:42048:1,2006-12-03T13:30:00Z,27.9396,-96.8429,2.0,228.2594547,33.45077727,-99999.0,'11111222,11111222,99999999' 
TABS,ioos:station:wmo:42048:1,2006-12-03T14:00:00Z,27.9396,-96.8429,2.0,221.7027229,39.71320813,-99999.0,'11111222,11111222,99999999' 
TABS,ioos:station:wmo:42048:1,2006-12-03T14:30:00Z,27.9396,-96.8429,2.0,219.7825107,35.45981669,-99999.0,'11111222,11111222,99999999' 
TABS,ioos:station:wmo:42048:1,2006-12-03T15:00:00Z,27.9396,-96.8429,2.0,229.009527,37.71748268,-99999.0,'11111222,11111222,99999999' 
TABS,ioos:station:wmo:42048:1,2006-12-03T15:30:00Z,27.9396,-96.8429,2.0,227.5198356,37.95177203,-99999.0,'11111222,11111222,99999999' 
TABS,ioos:station:wmo:42048:1,2006-12-03T16:00:00Z,27.9396,-96.8429,2.0,224.9894438,39.56262504,-99999.0,'11111222,11111222,99999999' 
TABS,ioos:station:wmo:42048:1,2006-12-03T16:30:00Z,27.9396,-96.8429,2.0,230.1666713,42.79121055,-99999.0,'11111222,11111222,99999999' 
TABS,ioos:station:wmo:42048:1,2006-12-03T17:00:00Z,27.9396,-96.8429,2.0,225.4929459,42.71083235,-99999.0,'11111222,11111222,99999999' 
TABS,ioos:station:wmo:42048:1,2006-12-03T17:30:00Z,27.9396,-96.8429,2.0,227.1603781,40.13563255,-99999.0,'11111222,11111222,99999999' 
TABS,ioos:station:wmo:42048:1,2006-12-03T18:00:00Z,27.9396,-96.8429,2.0,224.8493024,37.71720562,-99999.0,'11111222,11111222,99999999' 
TABS,ioos:station:wmo:42048:1,2006-12-03T18:30:00Z,27.9396,-96.8429,2.0,230.4352914,40.75706074,-99999.0,'11111222,11111222,99999999' 
TABS,ioos:station:wmo:42048:1,2006-12-03T19:00:00Z,27.9396,-96.8429,2.0,224.302273,42.40833527,-99999.0,'11111222,11111222,99999999' 
TABS,ioos:station:wmo:42048:1,2006-12-03T19:30:00Z,27.9396,-96.8429,2.0,225.3193822,46.88898058,-99999.0,'11111222,11111222,99999999' 
TABS,ioos:station:wmo:42048:1,2006-12-03T20:00:00Z,27.9396,-96.8429,2.0,223.1927488,37.89855538,-99999.0,'11111222,11111222,99999999' 
TABS,ioos:station:wmo:42048:1,2006-12-03T20:30:00Z,27.9396,-96.8429,2.0,232.0386707,37.39077961,-99999.0,'11111222,11111222,99999999' 
TABS,ioos:station:wmo:42048:1,2006-12-03T21:00:00Z,27.9396,-96.8429,2.0,222.3069017,41.39023677,-99999.0,'11111222,11111222,99999999' 
TABS,ioos:station:wmo:42048:1,2006-12-03T21:30:00Z,27.9396,-96.8429,2.0,219.483566,43.32708275,-99999.0,'11111222,11111222,99999999' 
TABS,ioos:station:wmo:42048:1,2006-12-03T22:00:00Z,27.9396,-96.8429,2.0,230.8002008,40.78971071,-99999.0,'11111222,11111222,99999999' 
TABS,ioos:station:wmo:42048:1,2006-12-03T22:30:00Z,27.9396,-96.8429,2.0,225.9876636,31.57701221,-99999.0,'11111222,11111222,99999999' 
TABS,ioos:station:wmo:42048:1,2006-12-03T23:00:00Z,27.9396,-96.8429,2.0,217.2239888,34.59866182,-99999.0,'11111222,11111222,99999999' 
TABS,ioos:station:wmo:42048:1,2006-12-03T23:30:00Z,27.9396,-96.8429,2.0,221.2729615,35.79164847,-99999.0,'11111222,11111222,99999999' 
TABS,ioos:station:wmo:42048:1,2006-12-04T00:00:00Z,27.9396,-96.8429,2.0,224.8332659,34.08269062,-99999.0,'11111222,11111222,99999999' 
TABS,ioos:station:wmo:42048:1,2006-12-04T00:30:00Z,27.9396,-96.8429,2.0,217.3898649,31.71730758,-99999.0,'11111222,11111222,99999999' 
TABS,ioos:station:wmo:42048:1,2006-12-04T01:00:00Z,27.9396,-96.8429,2.0,223.5581427,34.29138959,-99999.0,'11111222,11111222,99999999' 
TABS,ioos:station:wmo:42048:1,2006-12-04T01:30:00Z,27.9396,-96.8429,2.0,223.4324306,34.3853239,-99999.0,'11111222,11111222,99999999' 
TABS,ioos:station:wmo:42048:1,2006-12-04T02:00:00Z,27.9396,-96.8429,2.0,221.8359403,30.74944227,-99999.0,'11111222,11111222,99999999' 
TABS,ioos:station:wmo:42048:1,2006-12-04T02:30:00Z,27.9396,-96.8429,2.0,222.0361456,29.40547058,-99999.0,'11111222,11111222,99999999' 
TABS,ioos:station:wmo:42048:1,2006-12-04T03:00:00Z,27.9396,-96.8429,2.0,228.9704824,29.91879844,-99999.0,'11111222,11111222,99999999' 
TABS,ioos:station:wmo:42048:1,2006-12-04T03:30:00Z,27.9396,-96.8429,2.0,222.5141347,26.41407579,-99999.0,'11111222,11111222,99999999' 
TABS,ioos:station:wmo:42048:1,2006-12-04T04:00:00Z,27.9396,-96.8429,2.0,231.4651718,24.99254689,-99999.0,'11111222,11111222,99999999' 
TABS,ioos:station:wmo:42048:1,2006-12-04T04:30:00Z,27.9396,-96.8429,2.0,223.7939478,27.5549814,-99999.0,'11111222,11111222,99999999' 
TABS,ioos:station:wmo:42048:1,2006-12-04T05:00:00Z,27.9396,-96.8429,2.0,225.884977,28.83218514,-99999.0,'11111222,11111222,99999999' 
TABS,ioos:station:wmo:42048:1,2006-12-04T05:30:00Z,27.9396,-96.8429,2.0,230.2740511,25.69190534,-99999.0,'11111222,11111222,99999999' 
TABS,ioos:station:wmo:42048:1,2006-12-04T06:00:00Z,27.9396,-96.8429,2.0,222.363498,23.52205136,-99999.0,'11111222,11111222,99999999' 
TABS,ioos:station:wmo:42048:1,2006-12-04T06:30:00Z,27.9396,-96.8429,2.0,223.1210482,26.09919731,-99999.0,'11111222,11111222,99999999' 
TABS,ioos:station:wmo:42048:1,2006-12-04T07:00:00Z,27.9396,-96.8429,2.0,222.9371257,26.1303827,-99999.0,'11111222,11111222,99999999' 
TABS,ioos:station:wmo:42048:1,2006-12-04T07:30:00Z,27.9396,-96.8429,2.0,222.4419852,27.88778944,-99999.0,'11111222,11111222,99999999' 
TABS,ioos:station:wmo:42048:1,2006-12-04T08:00:00Z,27.9396,-96.8429,2.0,221.9998349,26.34754827,-99999.0,'11111222,11111222,99999999' 
TABS,ioos:station:wmo:42048:1,2006-12-04T08:30:00Z,27.9396,-96.8429,2.0,219.0059878,26.34231007,-99999.0,'11111222,11111222,99999999' 
TABS,ioos:station:wmo:42048:1,2006-12-04T09:00:00Z,27.9396,-96.8429,2.0,218.0066682,27.41339818,-99999.0,'11111222,11111222,99999999' 
TABS,ioos:station:wmo:42048:1,2006-12-04T09:30:00Z,27.9396,-96.8429,2.0,222.2648059,26.97148865,-99999.0,'11111222,11111222,99999999' 
TABS,ioos:station:wmo:42048:1,2006-12-04T10:00:00Z,27.9396,-96.8429,2.0,216.9749998,30.44205151,-99999.0,'11111222,11111222,99999999' 
TABS,ioos:station:wmo:42048:1,2006-12-04T10:30:00Z,27.9396,-96.8429,2.0,219.2437722,27.56766403,-99999.0,'11111222,11111222,99999999' 
TABS,ioos:station:wmo:42048:1,2006-12-04T11:00:00Z,27.9396,-96.8429,2.0,226.7657982,23.4022093,-99999.0,'11111222,11111222,99999999' 
TABS,ioos:station:wmo:42048:1,2006-12-04T11:30:00Z,27.9396,-96.8429,2.0,229.3014325,25.64121682,-99999.0,'11111222,11111222,99999999' 
TABS,ioos:station:wmo:42048:1,2006-12-04T12:00:00Z,27.9396,-96.8429,2.0,222.4120342,30.85424606,-99999.0,'11111222,11111222,99999999' 
TABS,ioos:station:wmo:42048:1,2006-12-04T12:30:00Z,27.9396,-96.8429,2.0,233.5948622,26.11686045,-99999.0,'11111222,11111222,99999999' 
TABS,ioos:station:wmo:42048:1,2006-12-04T13:00:00Z,27.9396,-96.8429,2.0,224.4954744,30.53405312,-99999.0,'11111222,11111222,99999999' 
TABS,ioos:station:wmo:42048:1,2006-12-04T13:30:00Z,27.9396,-96.8429,2.0,230.2977212,34.69036898,-99999.0,'11111222,11111222,99999999' 
TABS,ioos:station:wmo:42048:1,2006-12-04T14:00:00Z,27.9396,-96.8429,2.0,228.8616677,31.49534569,-99999.0,'11111222,11111222,99999999' 
TABS,ioos:station:wmo:42048:1,2006-12-04T14:30:00Z,27.9396,-96.8429,2.0,219.7729167,31.74674944,-99999.0,'11111222,11111222,99999999' 
TABS,ioos:station:wmo:42048:1,2006-12-04T15:00:00Z,27.9396,-96.8429,2.0,221.2212851,36.26855939,-99999.0,'11111222,11111222,99999999' 
TABS,ioos:station:wmo:42048:1,2006-12-04T15:30:00Z,27.9396,-96.8429,2.0,217.0334931,37.75615447,-99999.0,'11111222,11111222,99999999' 
TABS,ioos:station:wmo:42048:1,2006-12-04T16:00:00Z,27.9396,-96.8429,2.0,219.7186466,35.56996626,-99999.0,'11111222,11111222,99999999' 
TABS,ioos:station:wmo:42048:1,2006-12-04T16:30:00Z,27.9396,-96.8429,2.0,220.0276019,37.28462015,-99999.0,'11111222,11111222,99999999' 
TABS,ioos:station:wmo:42048:1,2006-12-04T17:00:00Z,27.9396,-96.8429,2.0,224.3929452,37.39390325,-99999.0,'11111222,11111222,99999999' 
TABS,ioos:station:wmo:42048:1,2006-12-04T17:30:00Z,27.9396,-96.8429,2.0,216.8915786,36.49800269,-99999.0,'11111222,11111222,99999999' 
TABS,ioos:station:wmo:42048:1,2006-12-04T18:00:00Z,27.9396,-96.8429,2.0,219.3928098,37.70655779,-99999.0,'11111222,11111222,99999999' 
TABS,ioos:station:wmo:42048:1,2006-12-04T18:30:00Z,27.9396,-96.8429,2.0,228.6577019,35.57631375,-99999.0,'11111222,11111222,99999999' 
TABS,ioos:station:wmo:42048:1,2006-12-04T19:00:00Z,27.9396,-96.8429,2.0,226.1143403,33.07764351,-99999.0,'11111222,11111222,99999999' 
TABS,ioos:station:wmo:42048:1,2006-12-04T19:30:00Z,27.9396,-96.8429,2.0,226.8960442,34.82994258,-99999.0,'11111222,11111222,99999999' 
TABS,ioos:station:wmo:42048:1,2006-12-04T20:00:00Z,27.9396,-96.8429,2.0,225.546157,37.81071938,-99999.0,'11111222,11111222,99999999' 
TABS,ioos:station:wmo:42048:1,2006-12-04T20:30:00Z,27.9396,-96.8429,2.0,221.3413726,36.68166436,-99999.0,'11111222,11111222,99999999' 
TABS,ioos:station:wmo:42048:1,2006-12-04T21:00:00Z,27.9396,-96.8429,2.0,228.5738472,35.04874463,-99999.0,'11111222,11111222,99999999' 
TABS,ioos:station:wmo:42048:1,2006-12-04T21:30:00Z,27.9396,-96.8429,2.0,218.4765865,34.73165991,-99999.0,'11111222,11111222,99999999' 
TABS,ioos:station:wmo:42048:1,2006-12-04T22:00:00Z,27.9396,-96.8429,2.0,219.0517268,37.87146287,-99999.0,'11111222,11111222,99999999' 
TABS,ioos:station:wmo:42048:1,2006-12-04T22:30:00Z,27.9396,-96.8429,2.0,215.31291,39.16645503,-99999.0,'11111222,11111222,99999999' 
TABS,ioos:station:wmo:42048:1,2006-12-04T23:00:00Z,27.9396,-96.8429,2.0,216.0965849,41.21175075,-99999.0,'11111222,11111222,99999999' 
TABS,ioos:station:wmo:42048:1,2006-12-04T23:30:00Z,27.9396,-96.8429,2.0,213.0962833,40.9668073,-99999.0,'11111222,11111222,99999999' 
TABS,ioos:station:wmo:42048:1,2006-12-05T00:00:00Z,27.9396,-96.8429,2.0,217.9865722,44.01436356,-99999.0,'11111222,11111222,99999999' 
TABS,ioos:station:wmo:42048:1,2006-12-05T00:30:00Z,27.9396,-96.8429,2.0,212.6997156,43.98042405,-99999.0,'11111222,11111222,99999999' 
TABS,ioos:station:wmo:42048:1,2006-12-05T01:00:00Z,27.9396,-96.8429,2.0,207.5611242,43.72173944,-99999.0,'11111222,11111222,99999999' 
TABS,ioos:station:wmo:42048:1,2006-12-05T01:30:00Z,27.9396,-96.8429,2.0,208.267189,45.4614397,-99999.0,'11111222,11111222,99999999' 
TABS,ioos:station:wmo:42048:1,2006-12-05T02:00:00Z,27.9396,-96.8429,2.0,212.2118736,39.35797759,-99999.0,'11111222,11111222,99999999' 
TABS,ioos:station:wmo:42048:1,2006-12-05T02:30:00Z,27.9396,-96.8429,2.0,209.2792152,41.07793812,-99999.0,'11111222,11111222,99999999' 
TABS,ioos:station:wmo:42048:1,2006-12-05T03:00:00Z,27.9396,-96.8429,2.0,208.5360693,36.40236943,-99999.0,'11111222,11111222,99999999' 
TABS,ioos:station:wmo:42048:1,2006-12-05T03:30:00Z,27.9396,-96.8429,2.0,209.0425209,32.99943787,-99999.0,'11111222,11111222,99999999' 
TABS,ioos:station:wmo:42048:1,2006-12-05T04:00:00Z,27.9396,-96.8429,2.0,211.6936425,28.66488619,-99999.0,'11111222,11111222,99999999' 
TABS,ioos:station:wmo:42048:1,2006-12-05T04:30:00Z,27.9396,-96.8429,2.0,208.1525243,27.27708562,-99999.0,'11111222,11111222,99999999' 
TABS,ioos:station:wmo:42048:1,2006-12-05T05:00:00Z,27.9396,-96.8429,2.0,219.0202238,27.28722045,-99999.0,'11111222,11111222,99999999' 
TABS,ioos:station:wmo:42048:1,2006-12-05T05:30:00Z,27.9396,-96.8429,2.0,209.50017,23.84093329,-99999.0,'11111222,11111222,99999999' 
TABS,ioos:station:wmo:42048:1,2006-12-05T06:00:00Z,27.9396,-96.8429,2.0,215.3639799,24.96661972,-99999.0,'11111222,11111222,99999999' 
TABS,ioos:station:wmo:42048:1,2006-12-05T06:30:00Z,27.9396,-96.8429,2.0,219.2577331,28.27055358,-99999.0,'11111222,11111222,99999999' 
TABS,ioos:station:wmo:42048:1,2006-12-05T07:00:00Z,27.9396,-96.8429,2.0,215.7108523,26.10933933,-99999.0,'11111222,11111222,99999999' 
TABS,ioos:station:wmo:42048:1,2006-12-05T07:30:00Z,27.9396,-96.8429,2.0,222.6328991,24.656634,-99999.0,'11111222,11111222,99999999' 
TABS,ioos:station:wmo:42048:1,2006-12-05T08:00:00Z,27.9396,-96.8429,2.0,227.8902572,23.69701458,-99999.0,'11111222,11111222,99999999' 
TABS,ioos:station:wmo:42048:1,2006-12-05T08:30:00Z,27.9396,-96.8429,2.0,222.499211,25.77029491,-99999.0,'11111222,11111222,99999999' 
TABS,ioos:station:wmo:42048:1,2006-12-05T09:00:00Z,27.9396,-96.8429,2.0,222.9426183,21.07829452,-99999.0,'11111222,11111222,99999999' 
TABS,ioos:station:wmo:42048:1,2006-12-05T09:30:00Z,27.9396,-96.8429,2.0,219.6487139,23.42955612,-99999.0,'11111222,11111222,99999999' 
TABS,ioos:station:wmo:42048:1,2006-12-05T10:00:00Z,27.9396,-96.8429,2.0,222.4259353,22.99001957,-99999.0,'11111222,11111222,99999999' 
TABS,ioos:station:wmo:42048:1,2006-12-05T10:30:00Z,27.9396,-96.8429,2.0,220.4475739,30.38121953,-99999.0,'11111222,11111222,99999999' 
TABS,ioos:station:wmo:42048:1,2006-12-05T11:00:00Z,27.9396,-96.8429,2.0,222.9708534,33.15580794,-99999.0,'11111222,11111222,99999999' 
TABS,ioos:station:wmo:42048:1,2006-12-05T11:30:00Z,27.9396,-96.8429,2.0,220.6324588,29.62185848,-99999.0,'11111222,11111222,99999999' 
TABS,ioos:station:wmo:42048:1,2006-12-05T12:00:00Z,27.9396,-96.8429,2.0,212.5314996,30.4592646,-99999.0,'11111222,11111222,99999999' 
TABS,ioos:station:wmo:42048:1,2006-12-05T12:30:00Z,27.9396,-96.8429,2.0,212.8718082,28.17054668,-99999.0,'11111222,11111222,99999999' 
TABS,ioos:station:wmo:42048:1,2006-12-05T13:00:00Z,27.9396,-96.8429,2.0,218.6336432,27.6771169,-99999.0,'11111222,11111222,99999999' 
TABS,ioos:station:wmo:42048:1,2006-12-05T13:30:00Z,27.9396,-96.8429,2.0,213.3757639,25.30302946,-99999.0,'11111222,11111222,99999999' 
TABS,ioos:station:wmo:42048:1,2006-12-05T14:00:00Z,27.9396,-96.8429,2.0,219.558515,22.59487774,-99999.0,'11111222,11111222,99999999' 
TABS,ioos:station:wmo:42048:1,2006-12-05T14:30:00Z,27.9396,-96.8429,2.0,236.9003815,24.2084035,-99999.0,'11111222,11111222,99999999' 
TABS,ioos:station:wmo:42048:1,2006-12-05T15:00:00Z,27.9396,-96.8429,2.0,224.0579229,25.81288438,-99999.0,'11111222,11111222,99999999' 
TABS,ioos:station:wmo:42048:1,2006-12-05T15:30:00Z,27.9396,-96.8429,2.0,217.5338554,25.35970426,-99999.0,'11111222,11111222,99999999' 
TABS,ioos:station:wmo:42048:1,2006-12-05T16:00:00Z,27.9396,-96.8429,2.0,223.2221736,23.48017249,-99999.0,'11111222,11111222,99999999' 
TABS,ioos:station:wmo:42048:1,2006-12-05T16:30:00Z,27.9396,-96.8429,2.0,227.0592711,22.42977485,-99999.0,'11111222,11111222,99999999' 